MDT,Max TemperatureF,Mean TemperatureF,Min TemperatureF,Max Dew PointF,MeanDew PointF,Min DewpointF,Max Humidity, Mean Humidity, Min Humidity, Max Sea Level PressureIn, Mean Sea Level PressureIn, Min Sea Level PressureIn, Max VisibilityMiles, Mean VisibilityMiles, Min VisibilityMiles, Max Wind SpeedMPH, Mean Wind SpeedMPH, Max Gust SpeedMPH,PrecipitationIn, CloudCover, Events, WindDirDegrees
2010-10-1,64,55,46,45,40,37,76,58,37,30.38,30.28,30.13,10,10,10,16,9,21,0.00,0,,25
2010-10-2,66,54,41,41,37,34,76,55,37,30.39,30.27,30.10,10,10,10,22,13,28,0.00,0,,143
2010-10-3,78,58,39,48,38,30,76,50,32,30.03,29.97,29.88,10,10,10,10,6,,0.00,0,,183
2010-10-4,82,62,42,48,43,37,82,56,28,29.90,29.84,29.76,10,10,10,13,5,18,0.00,0,,84
2010-10-5,75,60,46,52,47,43,93,67,41,30.22,29.97,29.79,10,10,10,25,10,31,0.00,0,,318
2010-10-6,69,52,35,45,40,32,93,65,37,30.41,30.34,30.17,10,10,10,14,7,,0.00,0,,187
2010-10-7,82,63,44,50,45,39,81,53,30,30.11,29.97,29.86,10,10,10,20,6,25,0.00,0,,212
2010-10-8,78,62,46,48,45,41,87,60,32,29.89,29.87,29.85,10,10,10,12,4,,0.00,0,,257
2010-10-9,64,58,53,54,52,46,94,81,59,30.01,29.95,29.88,10,10,10,26,15,31,0.24,7,,305
2010-10-10,73,60,48,54,49,45,93,70,38,30.09,30.06,29.97,10,10,10,14,9,,0.00,0,,317
2010-10-11,64,56,48,52,46,43,88,75,48,30.07,29.96,29.91,10,10,10,24,9,33,0.01,5,,241
2010-10-12,60,50,39,45,35,28,93,64,29,30.31,30.28,30.19,10,10,10,23,13,30,0.00,1,,275
2010-10-13,62,46,30,34,31,28,93,62,30,30.36,30.28,30.16,10,10,10,16,8,21,0.00,0,,207
2010-10-14,69,50,30,37,32,25,87,57,27,30.16,30.12,30.01,10,10,7,10,5,,0.00,0,,182
2010-10-15,77,58,39,43,34,28,70,50,21,29.95,29.87,29.83,10,10,8,20,7,24,0.00,0,,213
2010-10-16,55,42,30,32,27,21,93,58,28,30.30,30.25,30.18,10,10,10,13,9,,0.00,0,,276
2010-10-17,53,45,37,36,28,23,61,52,38,30.13,30.06,30.03,10,10,10,15,7,18,0.00,5,,44
2010-10-18,57,40,24,32,26,19,93,64,29,30.19,30.13,30.02,10,10,10,13,7,16,0.00,0,,230
2010-10-19,64,50,35,30,28,25,70,47,26,30.02,29.98,29.95,10,10,10,17,8,25,0.00,0,,266
2010-10-20,62,48,35,36,31,27,75,52,30,30.06,30.00,29.93,10,10,9,13,5,,0.00,0,,303
2010-10-21,69,50,30,37,30,23,75,54,30,30.02,29.91,29.78,10,10,7,12,5,,0.00,0,,144
2010-10-22,64,48,32,37,33,25,87,60,34,29.85,29.80,29.77,10,10,10,15,5,,0.00,0,,42
2010-10-23,55,46,37,37,35,32,87,67,51,29.84,29.80,29.77,10,10,10,12,8,,0.00,0,,59
2010-10-24,64,47,30,46,39,28,100,80,52,29.77,29.60,29.32,10,8,0,10,4,,0.00,3,,121
2010-10-25,48,45,42,46,40,36,93,80,62,29.33,29.20,29.11,10,10,5,31,12,38,0.03,8,,296
2010-10-26,35,34,30,28,26,25,86,75,65,29.45,29.38,29.36,10,9,3,37,24,47,0.00,8,,304
2010-10-27,30,27,24,25,20,16,86,75,64,30.17,29.85,29.52,10,8,2,37,28,48,0.00,6,,309
2010-10-28,17,17,17,18,16,14,100,93,86,30.27,30.26,30.26,10,10,10,5,4,,0.00,0,,307
2010-10-29,62,45,28,36,31,25,86,55,27,29.90,29.86,29.83,10,10,10,13,7,17,0.00,2,,234
2010-10-30,53,40,28,36,31,25,87,69,44,30.04,29.98,29.88,10,10,10,10,6,,0.00,1,,46
2010-10-31,57,46,35,39,35,30,93,70,51,29.96,29.93,29.90,10,10,10,10,5,,0.00,2,,129